Regional Weather Roundup
Issued by NWS

Home | Current Version | Previous Version | Text Only | Print | Product List | Glossary On
Versions: 1 2 3 4 5 6 7 8 9 10 11 12 13 14 15 16 17 18 19 20 21 22 23 24 25 26 27 28 29 30 31 32 33 34 35 36 37 38 39 40 41 42 43 44 45 46 47 48 49 50
000
ASUS45 KTFX 290119
RWRMT
MONTANA HOURLY WEATHER ROUNDUP
NATIONAL WEATHER SERVICE GREAT FALLS MT
619 PM MST WED JAN 28 2015

NOTE: "FAIR" INDICATES FEW OR NO CLOUDS BELOW 12000 FEET WITH NO
SIGNIFICANT WEATHER AND/OR OBSTRUCTIONS TO VISIBILITY.

* THESE STATIONS ARE NOT UNDER NWS QUALITY CONTROL. THEY DO NOT
   REPORT WEATHER SUCH AS PRECIPITATION OR FOG.

MTZ001>007-043-290200-
WEST OF THE DIVIDE
CITY           SKY/WX    TMP DP  RH WIND       PRES   REMARKS
KALISPELL      PTCLDY    32  28  85 NW3       30.35S
MISSOULA       MOCLDY    43  28  56 N7        30.36R
BUTTE          PTCLDY    36  23  59 NW6       30.31R WCI  31
MULLAN PASS    CLOUDY    28  27  96 CALM      30.33R
* ANACONDA     PTCLDY    34  25  70 N3         N/A
* ESSEX        N/A       34  30  85 N/A        N/A
* EUREKA APT   PTCLDY    39  28  65 CALM      30.37R
* HAMILTON APT PTCLDY    43  23  45 SE7       30.34R
* LIBBY APT    PTCLDY    28  28 100 CALM      30.41R VSB 3/4
* LINCOLN      N/A       42  22  45 SW2G10     N/A
* LOOKOUT PASS N/A       35  29  79 NE1        N/A
* POLSON       N/A       38  26  62 N/A        N/A
* RONAN APT    PTCLDY    39  39 100 N/A        N/A
* SEELEY LAKE  N/A       41  23  49 W3G12      N/A
* THOMP F APT  PTCLDY    31  30  96 S1         N/A
$$

MTZ008-052>055-290200-
SOUTHWEST MONTANA
CITY           SKY/WX    TMP DP  RH WIND       PRES   REMARKS
BOZEMAN        PTCLDY    37  27  67 N9        30.31R WCI  30
DILLON         PTCLDY    37  23  57 E8        30.28R WCI  31
* W YELLOWSTON PTCLDY    31  29  92 SW3G8      N/A
* THREE FORKS  PTCLDY    43  27  53 N/A        N/A
* BOULDER HILL N/A       32  15  49 N/A        N/A
* MONIDA PASS  N/A       29  23  78 W2         N/A
* RAYNOLDS PAS N/A       31  14  49 S12        N/A   WCI  22
* WHITEHALL    N/A       44  19  37 NW6G12     N/A
* WISE RIVER   N/A       38  21  50 NW6G13     N/A   WCI  33
$$

MTZ009>010-012-014-046-048-049-054-290200-
EAST SLOPES AND CENTRAL MONTANA
CITY           SKY/WX    TMP DP  RH WIND       PRES   REMARKS
CUT BANK       PTCLDY    32  27  82 SE7       30.33R WCI  25
GREAT FALLS    CLOUDY    37  32  82 E5        30.32R WCI  33
HELENA         MOCLDY    39  21  48 W6        30.31R WCI  35
MALMSTROM AFB  MOCLDY    36  32  85 SE2       30.34R
* CONRAD       PTCLDY    37  30  76 CALM       N/A
* DEARBORN     N/A       44  31  60 VRB9G15    N/A
* EAST GLACIER N/A       34  22  61 W11        N/A   WCI  26
* MONARCH      N/A       34  22  61 NW1        N/A
* PENDROY      N/A       34  33  96 S5         N/A   WCI  29
* ROGERS PASS  N/A       35  27  73 N/A        N/A
* SWEET GRASS  N/A       36  32  85 E3         N/A
* WHITE SULPH  N/A       38  27  65 NW5        N/A   WCI  34
$$

MTZ011-013-016-021-035-040-045-047-050-051-290200-
NORTH CENTRAL MONTANA
CITY           SKY/WX    TMP DP  RH WIND       PRES   REMARKS
HAVRE          PTCLDY    28  27  96 SW6       30.35R WCI  21
LEWISTOWN      CLOUDY    36  30  79 SW8       30.33R WCI  30
* N BAR RANCH  CLOUDY    36  23  59 NW5       30.32R WCI  32
* CHINOOK      PTCLDY    32  28  85 W9        30.35R WCI  24
* CHESTER      N/A       34  29  82 S2         N/A
* DENTON       N/A       34  32  92 W4         N/A
* GEYSER       N/A       36  32  85 E4         N/A
* JUDITH GAP   N/A       34  33  96 N24G29     N/A   WCI  22
* LOMA         N/A       33  30  89 NE3        N/A
$$

MTZ017>020-022>027-061-062-290200-
NORTHEAST MONTANA
CITY           SKY/WX    TMP DP  RH WIND       PRES   REMARKS
GLASGOW        MOCLDY    34  28  79 NW6       30.29R WCI  29
GLENDIVE       CLOUDY    34  28  79 NW14G22   30.28R WCI  24
JORDAN         PTCLDY    32  28  85 NW8       30.30R WCI  25
SIDNEY         CLOUDY    36  28  73 NW14      30.27R WCI  27
WOLF POINT     CLOUDY    37  28  70 NW10      30.29R WCI  30
* BEAVER HILL  N/A       32  27  82 NW22G34    N/A   WCI  19
* CIRCLE       N/A       32  29  89 N/A        N/A
* LINDSAY DVD  N/A       31  28  89 NW19G25    N/A   WCI  19
* NAVAJO       N/A       32  29  89 NW20G27    N/A   WCI  20
* PLENTYWOOD A PTCLDY    32  30  92 NW20G25   30.20R WCI  20
* POPLAR APT   PTCLDY    36  28  73 N/A       30.26R
* SACO         N/A       34  28  79 NW9        N/A   WCI  27
$$

MTZ028>042-056>058-290200-
SOUTHCENTRAL AND SOUTHEAST MONTANA
CITY           SKY/WX    TMP DP  RH WIND       PRES   REMARKS
BAKER          CLOUDY    32  28  85 NW20G30   30.24R WCI  20
BILLINGS       CLOUDY    43  30  60 N6        30.32R
LIVINGSTON     CLOUDY    43  25  49 SW3       30.30R
MILES CITY     CLOUDY    36  28  73 N10       30.29R WCI  29
* BIG TIMBER A MOCLDY    39  27  62 NE7       30.32R WCI  34
* FORSYTH APT  CLOUDY    37  30  76 NW7       30.31R WCI  32
* LAUREL APT   CLOUDY    43  25  49 N6         N/A
* ROUNDUP APT  MOCLDY    39  25  57 N/A        N/A
* ALZADA       N/A       34  28  79 W13G19     N/A   WCI  25
* HYSHAM       N/A       38  30  73 N2         N/A
* LAME DEER    N/A       34  29  82 N12G17     N/A   WCI  25
* REED POINT   N/A       45  23  42 VRB2G11    N/A
* ROSCOE HILL  N/A       40  20  45 VRB8       N/A   WCI  35
$$

REGIONAL REPORTS...DAKOTAS
CITY           SKY/WX    TMP DP  RH WIND       PRES   REMARKS
WILLISTON      CLOUDY    34  28  79 NW21G28   30.22R WCI  22
DICKINSON      CLOUDY    34  28  79 NW26G36   30.14R WCI  21
BEACH          CLOUDY    32  32 100 NW20G30   30.23R WCI  20
CROSBY         CLOUDY    32  32 100 NW20G30   30.19R WCI  20
TIOGA          CLOUDY    30  30 100 NW18G28   30.19R WCI  18
WATFORD CITY   CLOUDY    32  28  85 NW17      30.18R WCI  21
BISMARCK       CLOUDY    32  28  85 NW23G30   30.09R WCI  19
GRAND FORKS    FOG       30  28  92 NW24G29   29.93R WCI  16
FARGO          FOG       34  32  92 N22       29.89R WCI  22
BUFFALO SD     PTCLDY    36  28  73 NW28G39   30.11R WCI  23
RAPID CITY     PTCLDY    37  30  76 N26G36    30.13R WCI  25
$$

REGIONAL REPORTS...WYOMING/IDAHO/WASHINGTON
CITY           SKY/WX    TMP DP  RH WIND       PRES   REMARKS
GILLETTE       PTCLDY    36  28  73 N12       30.23R WCI  28
SHERIDAN       CLOUDY    43  30  60 NW12      30.28R
CODY           CLOUDY    39  27  62 NW6       30.28R WCI  35
YELLOWSTONE LA PTCLDY    27  25  92 CALM      30.32R
SALMON         PTCLDY    28  25  89 SE3       30.35R
MULLAN PASS    CLOUDY    28  27  96 CALM      30.33S
SAND POINT     FOG       36  36 100 CALM      30.42R
SPOKANE        FOG       36  36 100 N6        30.39S VSB 1/2  WCI  31
$$

REGIONAL REPORTS...ALBERTA
CITY           SKY/WX    TMP DP  RH WIND       PRES   REMARKS
CALGARY        FAIR      32  25  75 SE6       30.29R WCI  26
LETHBRIDGE     FAIR      30  27  89 SE8       30.32S WCI  22
MEDICINE HAT   N/A       34  30  85 NW7       30.34R WCI  28
EDMONTON       MOCLDY    21  19  92 SE2       30.33R
WATERTON GATE  N/A       36  27  70 SW9        N/A   WCI  29
CARDSTON       N/A       32  27  82 S1         N/A
MILK RIVER     N/A       32  28  85 E6         N/A   WCI  26
$$

REGIONAL REPORTS...SASKATCHEWAN
CITY           SKY/WX    TMP DP  RH WIND       PRES   REMARKS
SWIFT CURRENT  MOCLDY    28  25  89 NW15G21   30.27R WCI  16
REGINA         CLOUDY    27  23  85 NW23G30   30.22R WCI  13
VAL MARIE      N/A       32  28  85 NW15G21    N/A   WCI  22
ASSINIBOIA     N/A       30  27  89 NW16       N/A   WCI  19
CORONACH       N/A       32  28  85 NW18       N/A   WCI  21

$$



USA.gov is the U.S. government's official web portal to all federal, state and local government web resources and services.